SXM-10

Last updated on Sun Apr 12 2026 00:02:57 GMT+0000 (Coordinated Universal Time)

1 64290U 25122A 26101.18655874 -.00000016 00000+0 00000+0 0 9993 2 64290 0.0086 97.2711 0002485 281.5305 131.6047 1.00272165 3017
UTC large
Height (km)
Speed (km/s)
/
Latitude / Longitude
Inclination (degrees)
Orbital Period (minutes)
Azimuth
Elevation
Range (km)
Doppler Factor

Next 0 passes for location: London (51.5072 / 0.1276)

Sorry there are no passes over London.
SXM-10